Weather History for Warrenton, VA

Change the Weather History Date:

Saturday, December 22, 2012

  Actual Average (KHEF) Record (KHEF)
Temperature  
Mean Temperature 36 °F -  
Max Temperature 48 °F 41 °F 71 °F (2013)
Min Temperature 25 °F 22 °F 12 °F (2000)
Degree Days  
Heating Degree Days 29    
Moisture  
Dew Point 27 °F    
Average Humidity 61    
Maximum Humidity 95    
Minimum Humidity 45    
Precipitation  
Precipitation 0.00 in - - ()
Sea Level Pressure  
Sea Level Pressure 29.85 in    
Wind  
Wind Speed 12 mph (NW)    
Max Wind Speed 26 mph    
Max Gust Speed 39 mph    
Visibility 10 miles    
Events      
Averages and records for this station are not official NWS values.
T = Trace of Precipitation, MM = Missing Value Source: NWS Daily Summary

Daily Weather History Graph

Daily Weather History Graph

Search for Another Location

Airport:

Trip Planner

Search our weather history database for the weather conditions in past years. The results will help you decide how hot, cold, wet, or windy it might be!

Date:

Astronomy

Dec. 22, 2012 Rise Set
Actual Time 7:25 AM EST 4:53 PM EST
Civil Twilight 6:55 AM EST 5:23 PM EST
Nautical Twilight 6:22 AM EST 5:57 PM EST
Astronomical Twilight 5:50 AM EST 6:29 PM EST
Moon 1:08 PM EST 2:11 AM EST
Length of Visible Light 10h 27m
Length of Day
9h 28m
Waxing Gibbous, 73% of the Moon is Illuminated
Dec 22
Waxing Gibbous
Dec 28
Full
Jan 4
Last Quarter
Jan 11
New
Jan 18
First Quarter

Hourly Weather History & Observations

Time (EST) Temp. Windchill Dew Point Humidity Pressure Visibility Wind Dir Wind Speed Gust Speed Precip Events Conditions
12:15 AM 38.1 °F 32.9 °F 26.1 °F 62% 29.59 in 10.0 mi West 6.9 mph 17.3 mph N/A   Clear
12:35 AM 36.5 °F 33.9 °F 25.9 °F 65% 29.60 in 10.0 mi WSW 3.5 mph - N/A   Clear
12:55 AM 37.6 °F 33.1 °F 26.2 °F 64% 29.60 in 10.0 mi West 5.8 mph - N/A   Scattered Clouds
1:15 AM 38.3 °F 34.8 °F 26.1 °F 61% 29.61 in 10.0 mi WSW 4.6 mph - N/A   Scattered Clouds
1:35 AM 38.1 °F 33.7 °F 25.9 °F 61% 29.61 in 10.0 mi WSW 5.8 mph - N/A   Scattered Clouds
1:55 AM 38.5 °F 31.1 °F 26.2 °F 61% 29.61 in 10.0 mi West 11.5 mph - N/A   Scattered Clouds
2:15 AM 38.8 °F 31.6 °F 26.1 °F 60% 29.62 in 10.0 mi West 11.5 mph 21.9 mph N/A   Scattered Clouds
2:35 AM 40.1 °F 31.6 °F 26.1 °F 57% 29.63 in 10.0 mi WNW 16.1 mph 28.8 mph N/A   Scattered Clouds
2:55 AM 40.3 °F 33.4 °F 26.6 °F 58% 29.64 in 10.0 mi WNW 11.5 mph 19.6 mph N/A   Mostly Cloudy
3:15 AM 40.5 °F 35.8 °F 26.8 °F 58% 29.65 in 10.0 mi WNW 6.9 mph 26.5 mph N/A   Overcast
3:35 AM 40.3 °F 30.4 °F 26.8 °F 59% 29.64 in 10.0 mi WNW 21.9 mph 32.2 mph N/A   Mostly Cloudy
3:55 AM 40.1 °F 30.7 °F 27.3 °F 60% 29.65 in 10.0 mi WNW 19.6 mph 26.5 mph N/A   Scattered Clouds
4:15 AM 40.6 °F 32.7 °F 27.3 °F 59% 29.67 in 10.0 mi WNW 15.0 mph 29.9 mph N/A   Mostly Cloudy
4:35 AM 40.8 °F 34.1 °F 27.3 °F 59% 29.69 in 10.0 mi WNW 11.5 mph 19.6 mph N/A   Overcast
5:15 AM 41.2 °F 32.7 °F 28.4 °F 60% 29.71 in 10.0 mi WNW 17.3 mph 32.2 mph N/A   Overcast
5:35 AM 40.6 °F 31.7 °F 29.3 °F 64% 29.72 in 10.0 mi WNW 18.4 mph 31.1 mph N/A   Mostly Cloudy
5:55 AM 40.5 °F 31.2 °F 29.3 °F 64% 29.73 in 10.0 mi NW 19.6 mph 27.6 mph N/A   Overcast
6:15 AM 40.3 °F 31.0 °F 29.3 °F 65% 29.75 in 10.0 mi WNW 19.6 mph 26.5 mph N/A   Overcast
6:55 AM 40.6 °F 33.0 °F 29.1 °F 64% 29.78 in 10.0 mi NW 13.8 mph 31.1 mph N/A   Overcast
7:15 AM 40.3 °F 33.9 °F 28.9 °F 64% 29.79 in 10.0 mi NNW 10.4 mph 17.3 mph N/A   Overcast
7:35 AM 40.5 °F 31.8 °F 27.9 °F 61% 29.80 in 10.0 mi NW 17.3 mph 26.5 mph N/A   Overcast
7:55 AM 40.3 °F 31.0 °F 28.0 °F 62% 29.81 in 10.0 mi NW 19.6 mph 25.3 mph N/A   Overcast
8:15 AM 40.1 °F 32.0 °F 28.0 °F 62% 29.82 in 10.0 mi NW 15.0 mph 23.0 mph N/A   Overcast
8:35 AM 40.5 °F 32.5 °F 28.0 °F 61% 29.83 in 10.0 mi WNW 15.0 mph 26.5 mph N/A   Overcast
8:55 AM 40.5 °F 31.2 °F 27.9 °F 61% 29.84 in 10.0 mi WNW 19.6 mph 26.5 mph N/A   Mostly Cloudy
9:15 AM 41.0 °F 30.5 °F 27.0 °F 57% 29.86 in 10.0 mi WNW 26.5 mph 39.1 mph N/A   Scattered Clouds
9:35 AM 41.9 °F 33.4 °F 27.0 °F 55% 29.87 in 10.0 mi WNW 18.4 mph 29.9 mph N/A   Scattered Clouds
9:55 AM 40.5 °F 30.4 °F 26.4 °F 57% 29.87 in 10.0 mi NW 23.0 mph 28.8 mph N/A   Scattered Clouds
10:15 AM 42.3 °F 32.8 °F 27.3 °F 56% 29.87 in 10.0 mi WNW 23.0 mph 31.1 mph N/A   Clear
10:35 AM 43.5 °F 34.0 °F 27.5 °F 53% 29.88 in 10.0 mi WNW 25.3 mph 35.7 mph N/A   Clear
10:55 AM 42.8 °F 33.3 °F 26.8 °F 53% 29.88 in 10.0 mi WNW 24.2 mph 32.2 mph N/A   Clear
11:15 AM 44.4 °F 36.4 °F 27.5 °F 52% 29.89 in 10.0 mi WNW 19.6 mph 28.8 mph N/A   Clear
11:35 AM 45.0 °F 37.1 °F 27.3 °F 50% 29.89 in 10.0 mi WNW 19.6 mph 26.5 mph N/A   Scattered Clouds
11:55 AM 45.3 °F 38.1 °F 27.5 °F 50% 29.89 in 10.0 mi WNW 17.3 mph 32.2 mph N/A   Scattered Clouds
12:15 PM 45.7 °F 38.0 °F 27.5 °F 49% 29.88 in 10.0 mi WNW 19.6 mph 27.6 mph N/A   Clear
12:35 PM 46.4 °F 39.8 °F 27.3 °F 47% 29.88 in 10.0 mi West 16.1 mph 25.3 mph N/A   Clear
12:55 PM 46.0 °F 39.0 °F 27.0 °F 47% 29.88 in 10.0 mi WNW 17.3 mph 26.5 mph N/A   Clear
1:15 PM 46.0 °F 38.0 °F 26.6 °F 47% 29.88 in 10.0 mi WNW 21.9 mph 29.9 mph N/A   Clear
1:35 PM 46.4 °F 39.8 °F 27.3 °F 47% 29.88 in 10.0 mi WNW 16.1 mph 27.6 mph N/A   Clear
1:55 PM 47.3 °F - 27.9 °F 47% 29.87 in 10.0 mi NW 18.4 mph 21.9 mph N/A   Clear
2:15 PM 47.7 °F - 27.7 °F 46% 29.88 in 10.0 mi NW 15.0 mph 21.9 mph N/A   Clear
2:35 PM 47.8 °F - 27.7 °F 46% 29.87 in 10.0 mi WNW 13.8 mph 23.0 mph N/A   Clear
2:55 PM 47.3 °F - 26.6 °F 45% 29.88 in 10.0 mi NW 16.1 mph - N/A   Clear
3:15 PM 46.9 °F - 26.8 °F 45% 29.89 in 10.0 mi NW 12.7 mph 18.4 mph N/A   Clear
3:35 PM 45.9 °F 39.4 °F 27.1 °F 48% 29.89 in 10.0 mi NNW 15.0 mph 23.0 mph N/A   Clear
3:55 PM 45.1 °F 38.4 °F 25.7 °F 47% 29.90 in 10.0 mi NW 15.0 mph 20.7 mph N/A   Clear
4:15 PM 44.2 °F 39.7 °F 25.7 °F 48% 29.92 in 10.0 mi NW 8.1 mph - N/A   Clear
4:35 PM 43.0 °F 35.7 °F 25.9 °F 51% 29.93 in 10.0 mi NNW 15.0 mph 20.7 mph N/A   Clear
4:55 PM 41.2 °F 36.0 °F 25.9 °F 55% 29.94 in 10.0 mi North 8.1 mph - N/A   Clear
5:15 PM 40.3 °F 34.4 °F 25.7 °F 56% 29.95 in 10.0 mi NNW 9.2 mph - N/A   Clear
5:35 PM 40.3 °F 33.9 °F 25.3 °F 55% 29.95 in 10.0 mi NNW 10.4 mph - N/A   Clear
5:55 PM 39.2 °F - 24.8 °F 56% 29.97 in 10.0 mi Calm Calm - N/A   Clear
6:15 PM 37.9 °F - 24.8 °F 59% 29.98 in 10.0 mi Calm Calm - N/A   Clear
6:55 PM 37.2 °F 30.0 °F 26.2 °F 65% 29.99 in 10.0 mi NW 10.4 mph - N/A   Clear
7:15 PM 37.4 °F 30.3 °F 25.5 °F 62% 29.99 in 10.0 mi NW 10.4 mph - N/A   Clear
7:35 PM 36.7 °F 32.0 °F 25.5 °F 64% 30.00 in 10.0 mi North 5.8 mph - N/A   Clear
7:55 PM 34.2 °F - 25.0 °F 69% 30.00 in 10.0 mi Calm Calm - N/A   Clear
8:15 PM 35.2 °F 29.5 °F 25.5 °F 68% 30.00 in 10.0 mi North 6.9 mph - N/A   Clear
8:35 PM 36.3 °F 30.8 °F 25.3 °F 64% 30.00 in 10.0 mi North 6.9 mph - N/A   Clear
9:15 PM 32.7 °F - 25.3 °F 74% 30.01 in 10.0 mi Calm Calm - N/A   Clear
9:35 PM 29.8 °F - 25.0 °F 82% 30.02 in 10.0 mi Calm Calm - N/A   Clear
9:55 PM 29.7 °F 24.7 °F 25.3 °F 84% 30.02 in 10.0 mi East 4.6 mph - N/A   Clear
10:15 PM 30.6 °F - 25.3 °F 81% 30.02 in 10.0 mi Calm Calm - N/A   Clear
10:35 PM 28.4 °F - 24.8 °F 86% 30.03 in 10.0 mi Calm Calm - N/A   Clear
10:55 PM 28.6 °F - 24.8 °F 86% 30.03 in 10.0 mi Calm Calm - N/A   Clear
11:15 PM 25.3 °F - 24.1 °F 95% 30.04 in 10.0 mi Calm Calm - N/A   Clear
11:35 PM 26.8 °F - 25.3 °F 94% 30.04 in 10.0 mi Calm Calm - N/A   Clear
11:55 PM 26.8 °F - 24.8 °F 92% 30.04 in 10.0 mi Calm Calm - N/A   Clear